Time,TemperatureF,DewpointF,PressureIn,WindDirection,WindDirectionDegrees,WindSpeedMPH,WindSpeedGustMPH,Humidity,HourlyPrecipIn,Conditions,Clouds,dailyrainin,SoftwareType,DateUTC
2013-04-27 00:01:00,55.0,39.6,30.34,SE,139,0.0,1.0,56,0.00,,,0.00,meteohub,2013-04-27 04:01:00,
2013-04-27 00:02:00,55.0,39.2,30.34,SE,138,0.0,1.0,55,0.00,,,0.00,meteohub,2013-04-27 04:02:00,
2013-04-27 00:07:00,55.2,40.6,30.34,SE,138,0.0,1.0,58,0.00,,,0.00,meteohub,2013-04-27 04:07:00,
2013-04-27 00:12:00,54.9,39.0,30.34,SE,138,0.0,1.0,55,0.00,,,0.00,meteohub,2013-04-27 04:12:00,
2013-04-27 00:17:00,54.1,38.8,30.34,SE,138,0.0,1.0,56,0.00,,,0.00,meteohub,2013-04-27 04:17:00,
2013-04-27 00:22:00,54.0,39.0,30.34,SE,138,0.0,1.0,57,0.00,,,0.00,meteohub,2013-04-27 04:22:00,
2013-04-27 00:27:00,53.6,38.3,30.34,SE,139,0.0,1.0,56,0.00,,,0.00,meteohub,2013-04-27 04:27:00,
2013-04-27 00:32:00,53.2,38.5,30.34,SE,138,0.0,0.0,57,0.00,,,0.00,meteohub,2013-04-27 04:32:00,
2013-04-27 00:37:00,52.9,38.1,30.34,SE,137,0.0,0.0,57,0.00,,,0.00,meteohub,2013-04-27 04:37:00,
2013-04-27 00:42:00,52.7,37.9,30.34,SE,136,0.0,0.0,57,0.00,,,0.00,meteohub,2013-04-27 04:42:00,
2013-04-27 00:47:00,52.5,37.8,30.34,SE,136,0.0,0.0,57,0.00,,,0.00,meteohub,2013-04-27 04:47:00,
2013-04-27 00:52:00,52.5,38.1,30.34,SE,136,0.0,0.0,58,0.00,,,0.00,meteohub,2013-04-27 04:52:00,
2013-04-27 00:57:00,52.5,38.7,30.33,SE,136,0.0,0.0,59,0.00,,,0.00,meteohub,2013-04-27 04:57:00,
2013-04-27 01:02:00,52.9,39.7,30.33,SE,136,0.0,0.0,61,0.00,,,0.00,meteohub,2013-04-27 05:02:00,
2013-04-27 01:07:00,52.7,38.8,30.33,SE,136,0.0,0.0,59,0.00,,,0.00,meteohub,2013-04-27 05:07:00,
2013-04-27 01:12:00,52.9,40.6,30.33,SE,136,0.0,0.0,63,0.00,,,0.00,meteohub,2013-04-27 05:12:00,
2013-04-27 01:17:00,53.4,40.6,30.33,SE,136,0.0,0.0,62,0.00,,,0.00,meteohub,2013-04-27 05:17:00,
2013-04-27 01:22:00,53.2,38.8,30.33,SE,136,0.0,0.0,58,0.00,,,0.00,meteohub,2013-04-27 05:22:00,
2013-04-27 01:27:00,53.1,39.6,30.33,SE,136,0.0,0.0,60,0.00,,,0.00,meteohub,2013-04-27 05:27:00,
2013-04-27 01:32:00,53.1,38.7,30.33,SE,136,0.0,0.0,58,0.00,,,0.00,meteohub,2013-04-27 05:32:00,
2013-04-27 01:37:00,53.1,39.6,30.33,SE,136,0.0,0.0,60,0.00,,,0.00,meteohub,2013-04-27 05:37:00,
2013-04-27 01:42:00,53.1,39.2,30.33,SE,136,0.0,0.0,59,0.00,,,0.00,meteohub,2013-04-27 05:42:00,
2013-04-27 01:48:00,53.1,39.2,30.33,SE,137,0.0,1.0,59,0.00,,,0.00,meteohub,2013-04-27 05:48:00,
2013-04-27 01:53:00,53.4,41.2,30.33,SE,136,0.0,1.0,63,0.00,,,0.00,meteohub,2013-04-27 05:53:00,
2013-04-27 01:58:00,54.1,41.4,30.33,SE,136,0.0,0.0,62,0.00,,,0.00,meteohub,2013-04-27 05:58:00,
2013-04-27 02:03:00,54.3,41.5,30.33,SE,136,0.0,0.0,62,0.00,,,0.00,meteohub,2013-04-27 06:03:00,
2013-04-27 02:08:00,54.1,41.0,30.33,SE,136,0.0,0.0,61,0.00,,,0.00,meteohub,2013-04-27 06:08:00,
2013-04-27 02:13:00,54.3,41.2,30.33,SE,136,0.0,0.0,61,0.00,,,0.00,meteohub,2013-04-27 06:13:00,
2013-04-27 02:18:00,53.2,39.2,30.33,SE,138,0.0,1.0,59,0.00,,,0.00,meteohub,2013-04-27 06:18:00,
2013-04-27 02:23:00,52.2,39.2,30.33,SE,136,0.0,1.0,61,0.00,,,0.00,meteohub,2013-04-27 06:23:00,
2013-04-27 02:28:00,51.8,39.2,30.33,SE,136,0.0,0.0,62,0.00,,,0.00,meteohub,2013-04-27 06:28:00,
2013-04-27 02:33:00,51.4,38.8,30.32,SE,136,0.0,0.0,62,0.00,,,0.00,meteohub,2013-04-27 06:33:00,
2013-04-27 02:38:00,51.6,39.0,30.32,SE,136,0.0,0.0,62,0.00,,,0.00,meteohub,2013-04-27 06:38:00,
2013-04-27 02:43:00,52.2,41.2,30.33,SE,136,0.0,0.0,66,0.00,,,0.00,meteohub,2013-04-27 06:43:00,
2013-04-27 02:48:00,52.9,41.0,30.32,SE,136,0.0,0.0,64,0.00,,,0.00,meteohub,2013-04-27 06:48:00,
2013-04-27 02:53:00,52.9,41.9,30.32,SE,136,0.0,0.0,66,0.00,,,0.00,meteohub,2013-04-27 06:53:00,
2013-04-27 02:58:00,52.5,40.3,30.33,SE,136,0.0,0.0,63,0.00,,,0.00,meteohub,2013-04-27 06:58:00,
2013-04-27 03:03:00,51.8,39.6,30.32,SE,136,0.0,0.0,63,0.00,,,0.00,meteohub,2013-04-27 07:03:00,
2013-04-27 03:08:00,52.0,41.0,30.32,SE,136,0.0,0.0,66,0.00,,,0.00,meteohub,2013-04-27 07:08:00,
2013-04-27 03:13:00,52.5,41.9,30.32,SE,136,0.0,0.0,67,0.00,,,0.00,meteohub,2013-04-27 07:13:00,
2013-04-27 03:18:00,52.9,42.3,30.32,SE,136,0.0,0.0,67,0.00,,,0.00,meteohub,2013-04-27 07:18:00,
2013-04-27 03:23:00,52.9,42.3,30.32,SE,136,0.0,0.0,67,0.00,,,0.00,meteohub,2013-04-27 07:23:00,
2013-04-27 03:28:00,52.3,41.4,30.32,SE,139,0.0,0.0,66,0.00,,,0.00,meteohub,2013-04-27 07:28:00,
2013-04-27 03:33:00,52.2,41.2,30.32,SE,136,0.0,0.0,66,0.00,,,0.00,meteohub,2013-04-27 07:33:00,
2013-04-27 03:38:00,52.2,42.3,30.32,SE,138,0.0,0.0,69,0.00,,,0.00,meteohub,2013-04-27 07:38:00,
2013-04-27 03:43:00,52.3,42.1,30.32,SE,137,0.0,0.0,68,0.00,,,0.00,meteohub,2013-04-27 07:43:00,
2013-04-27 03:48:00,52.3,42.1,30.32,SE,136,0.0,0.0,68,0.00,,,0.00,meteohub,2013-04-27 07:48:00,
2013-04-27 03:53:00,52.3,41.4,30.32,SE,136,0.0,0.0,66,0.00,,,0.00,meteohub,2013-04-27 07:53:00,
2013-04-27 03:58:00,51.8,40.8,30.32,SE,136,0.0,1.0,66,0.00,,,0.00,meteohub,2013-04-27 07:58:00,
2013-04-27 04:03:00,51.6,41.4,30.32,SE,136,0.0,1.0,68,0.00,,,0.00,meteohub,2013-04-27 08:03:00,
2013-04-27 04:09:00,52.0,42.1,30.32,SE,138,0.0,1.0,69,0.00,,,0.00,meteohub,2013-04-27 08:09:00,
2013-04-27 04:14:00,52.3,42.1,30.32,SE,138,0.0,0.0,68,0.00,,,0.00,meteohub,2013-04-27 08:14:00,
2013-04-27 04:19:00,52.3,41.7,30.32,SE,136,0.0,0.0,67,0.00,,,0.00,meteohub,2013-04-27 08:19:00,
2013-04-27 04:24:00,52.3,42.1,30.31,SE,138,0.0,0.0,68,0.00,,,0.00,meteohub,2013-04-27 08:24:00,
2013-04-27 04:29:00,52.0,41.4,30.31,SE,139,0.0,0.0,67,0.00,,,0.00,meteohub,2013-04-27 08:29:00,
2013-04-27 04:34:00,51.1,40.1,30.31,SE,136,0.0,0.0,66,0.00,,,0.00,meteohub,2013-04-27 08:34:00,
2013-04-27 04:39:00,50.7,40.5,30.31,SE,136,0.0,0.0,68,0.00,,,0.00,meteohub,2013-04-27 08:39:00,
2013-04-27 04:44:00,50.2,40.1,30.32,SE,136,0.0,0.0,68,0.00,,,0.00,meteohub,2013-04-27 08:44:00,
2013-04-27 04:49:00,49.8,40.1,30.32,SE,137,0.0,0.0,69,0.00,,,0.00,meteohub,2013-04-27 08:49:00,
2013-04-27 04:54:00,50.2,41.9,30.32,SE,136,0.0,0.0,73,0.00,,,0.00,meteohub,2013-04-27 08:54:00,
2013-04-27 04:59:00,50.4,41.0,30.32,SE,137,0.0,0.0,70,0.00,,,0.00,meteohub,2013-04-27 08:59:00,
2013-04-27 05:04:00,50.5,41.9,30.32,SE,136,0.0,0.0,72,0.00,,,0.00,meteohub,2013-04-27 09:04:00,
2013-04-27 05:09:00,50.4,41.0,30.32,SE,139,0.0,0.0,70,0.00,,,0.00,meteohub,2013-04-27 09:09:00,
2013-04-27 05:14:00,50.4,41.7,30.32,SE,136,0.0,0.0,72,0.00,,,0.00,meteohub,2013-04-27 09:14:00,
2013-04-27 05:19:00,50.9,42.3,30.32,SE,136,0.0,1.0,72,0.00,,,0.00,meteohub,2013-04-27 09:19:00,
2013-04-27 05:24:00,51.3,42.3,30.32,SE,136,0.0,1.0,71,0.00,,,0.00,meteohub,2013-04-27 09:24:00,
2013-04-27 05:29:00,51.3,41.9,30.32,SE,136,0.0,1.0,70,0.00,,,0.00,meteohub,2013-04-27 09:29:00,
2013-04-27 05:34:00,51.3,41.9,30.32,SE,136,0.0,1.0,70,0.00,,,0.00,meteohub,2013-04-27 09:34:00,
2013-04-27 05:39:00,50.4,40.3,30.32,SE,136,0.0,1.0,68,0.00,,,0.00,meteohub,2013-04-27 09:39:00,
2013-04-27 05:44:00,49.5,40.5,30.32,SE,136,0.0,1.0,71,0.00,,,0.00,meteohub,2013-04-27 09:44:00,
2013-04-27 05:49:00,49.6,41.7,30.32,SE,136,0.0,1.0,74,0.00,,,0.00,meteohub,2013-04-27 09:49:00,
2013-04-27 05:54:00,49.5,40.8,30.32,SE,136,0.0,0.0,72,0.00,,,0.00,meteohub,2013-04-27 09:54:00,
2013-04-27 05:59:00,49.5,41.2,30.32,SE,136,0.0,0.0,73,0.00,,,0.00,meteohub,2013-04-27 09:59:00,
2013-04-27 06:04:00,49.1,40.5,30.33,SE,136,0.0,0.0,72,0.00,,,0.00,meteohub,2013-04-27 10:04:00,
2013-04-27 06:09:00,48.4,39.7,30.33,SE,136,0.0,0.0,72,0.00,,,0.00,meteohub,2013-04-27 10:09:00,
2013-04-27 06:14:00,48.2,40.6,30.33,SE,136,0.0,0.0,75,0.00,,,0.00,meteohub,2013-04-27 10:14:00,
2013-04-27 06:19:00,48.0,40.5,30.33,SE,137,0.0,0.0,75,0.00,,,0.00,meteohub,2013-04-27 10:19:00,
2013-04-27 06:24:00,47.5,39.9,30.33,SE,136,0.0,0.0,75,0.00,,,0.00,meteohub,2013-04-27 10:24:00,
2013-04-27 06:29:00,47.7,40.8,30.33,SE,136,0.0,0.0,77,0.00,,,0.00,meteohub,2013-04-27 10:29:00,
2013-04-27 06:34:00,47.7,40.8,30.33,SE,136,0.0,0.0,77,0.00,,,0.00,meteohub,2013-04-27 10:34:00,
2013-04-27 06:39:00,48.4,41.9,30.33,SE,136,0.0,0.0,78,0.00,,,0.00,meteohub,2013-04-27 10:39:00,
2013-04-27 06:44:00,49.3,42.1,30.33,SE,136,0.0,0.0,76,0.00,,,0.00,meteohub,2013-04-27 10:44:00,
2013-04-27 06:50:00,50.0,42.1,30.33,SE,136,0.0,1.0,74,0.00,,,0.00,meteohub,2013-04-27 10:50:00,
2013-04-27 06:55:00,50.5,41.9,30.33,SE,137,0.0,1.0,72,0.00,,,0.00,meteohub,2013-04-27 10:55:00,
2013-04-27 07:00:00,50.5,41.9,30.33,SE,136,0.0,0.0,72,0.00,,,0.00,meteohub,2013-04-27 11:00:00,
2013-04-27 07:05:00,50.7,41.7,30.34,SE,137,0.0,0.0,71,0.00,,,0.00,meteohub,2013-04-27 11:05:00,
2013-04-27 07:10:00,51.3,41.4,30.34,SE,136,0.0,1.0,69,0.00,,,0.00,meteohub,2013-04-27 11:10:00,
2013-04-27 07:15:00,50.5,40.8,30.34,SE,137,0.0,1.0,69,0.00,,,0.00,meteohub,2013-04-27 11:15:00,
2013-04-27 07:20:00,50.2,40.5,30.34,NE,37,0.0,1.0,69,0.00,,,0.00,meteohub,2013-04-27 11:20:00,
2013-04-27 07:25:00,50.2,40.5,30.34,NE,37,0.0,1.0,69,0.00,,,0.00,meteohub,2013-04-27 11:25:00,
2013-04-27 07:30:00,50.5,41.2,30.34,NE,37,0.0,2.0,70,0.00,,,0.00,meteohub,2013-04-27 11:30:00,
2013-04-27 07:35:00,50.7,40.1,30.34,NE,37,0.0,2.0,67,0.00,,,0.00,meteohub,2013-04-27 11:35:00,
2013-04-27 07:40:00,51.1,39.7,30.34,NE,37,0.0,0.0,65,0.00,,,0.00,meteohub,2013-04-27 11:40:00,
2013-04-27 07:45:00,51.6,40.3,30.34,NE,37,0.0,1.0,65,0.00,,,0.00,meteohub,2013-04-27 11:45:00,
2013-04-27 07:50:00,52.3,41.4,30.34,ESE,122,1.0,1.0,66,0.00,,,0.00,meteohub,2013-04-27 11:50:00,
2013-04-27 07:55:00,53.1,40.8,30.34,SE,135,1.0,1.0,63,0.00,,,0.00,meteohub,2013-04-27 11:55:00,
2013-04-27 08:00:00,53.4,40.6,30.34,NE,51,1.0,2.0,62,0.00,,,0.00,meteohub,2013-04-27 12:00:00,
2013-04-27 08:05:00,54.0,41.2,30.35,SE,128,0.0,2.0,62,0.00,,,0.00,meteohub,2013-04-27 12:05:00,
2013-04-27 08:10:00,54.7,41.5,30.35,SE,131,1.0,2.0,61,0.00,,,0.00,meteohub,2013-04-27 12:10:00,
2013-04-27 08:15:00,54.1,40.6,30.35,SE,142,1.0,3.0,60,0.00,,,0.00,meteohub,2013-04-27 12:15:00,
2013-04-27 08:20:00,54.7,41.5,30.35,SE,138,0.0,3.0,61,0.00,,,0.00,meteohub,2013-04-27 12:20:00,
2013-04-27 08:25:00,55.6,41.5,30.35,East,91,0.0,3.0,59,0.00,,,0.00,meteohub,2013-04-27 12:25:00,
2013-04-27 08:30:00,56.5,41.9,30.35,SE,134,1.0,2.0,58,0.00,,,0.00,meteohub,2013-04-27 12:30:00,
2013-04-27 08:35:00,57.0,41.9,30.35,ESE,118,0.0,3.0,57,0.00,,,0.00,meteohub,2013-04-27 12:35:00,
2013-04-27 08:40:00,57.7,42.1,30.35,SE,124,0.0,3.0,56,0.00,,,0.00,meteohub,2013-04-27 12:40:00,
2013-04-27 08:45:00,58.3,42.3,30.35,East,90,0.0,3.0,55,0.00,,,0.00,meteohub,2013-04-27 12:45:00,
2013-04-27 08:50:00,58.3,41.7,30.35,WSW,252,2.0,3.0,54,0.00,,,0.00,meteohub,2013-04-27 12:50:00,
2013-04-27 08:55:00,58.8,42.3,30.35,ESE,111,2.0,3.0,54,0.00,,,0.00,meteohub,2013-04-27 12:55:00,
2013-04-27 09:00:00,59.0,42.4,30.35,SE,134,2.0,5.0,54,0.00,,,0.00,meteohub,2013-04-27 13:00:00,
2013-04-27 09:05:00,58.6,42.1,30.35,NNE,20,2.0,6.0,54,0.00,,,0.00,meteohub,2013-04-27 13:05:00,
2013-04-27 09:11:00,58.6,43.0,30.35,NNE,30,3.0,6.0,56,0.00,,,0.00,meteohub,2013-04-27 13:11:00,
2013-04-27 09:16:00,58.3,42.6,30.35,ESE,103,1.0,6.0,56,0.00,,,0.00,meteohub,2013-04-27 13:16:00,
2013-04-27 09:21:00,59.2,43.0,30.35,SSW,193,0.0,6.0,55,0.00,,,0.00,meteohub,2013-04-27 13:21:00,
2013-04-27 09:26:00,59.5,42.4,30.35,ENE,63,3.0,9.0,53,0.00,,,0.00,meteohub,2013-04-27 13:26:00,
2013-04-27 09:31:00,59.5,41.9,30.35,NNE,30,5.0,9.0,52,0.00,,,0.00,meteohub,2013-04-27 13:31:00,
2013-04-27 09:36:00,59.4,42.3,30.35,NNE,22,3.0,9.0,53,0.00,,,0.00,meteohub,2013-04-27 13:36:00,
2013-04-27 09:41:00,60.1,41.9,30.35,NE,51,1.0,6.0,51,0.00,,,0.00,meteohub,2013-04-27 13:41:00,
2013-04-27 09:48:00,60.4,41.2,30.35,NE,47,1.0,6.0,49,0.00,,,0.00,meteohub,2013-04-27 13:48:00,
2013-04-27 09:53:00,61.0,40.6,30.35,NNE,22,2.0,6.0,47,0.00,,,0.00,meteohub,2013-04-27 13:53:00,
2013-04-27 09:58:00,61.3,41.5,30.35,NNE,17,5.0,6.0,48,0.00,,,0.00,meteohub,2013-04-27 13:58:00,
2013-04-27 10:03:00,62.1,41.0,30.35,NE,39,2.0,6.0,46,0.00,,,0.00,meteohub,2013-04-27 14:03:00,
2013-04-27 10:08:00,62.6,41.0,30.34,NNE,27,3.0,6.0,45,0.00,,,0.00,meteohub,2013-04-27 14:08:00,
2013-04-27 10:13:00,62.4,40.8,30.34,NE,43,5.0,6.0,45,0.00,,,0.00,meteohub,2013-04-27 14:13:00,
2013-04-27 10:18:00,63.0,41.4,30.34,ESE,122,1.0,6.0,45,0.00,,,0.00,meteohub,2013-04-27 14:18:00,
2013-04-27 10:23:00,64.6,39.7,30.34,ESE,122,4.0,6.0,40,0.00,,,0.00,meteohub,2013-04-27 14:23:00,
2013-04-27 10:28:00,64.6,39.7,30.34,NNE,33,2.0,5.0,40,0.00,,,0.00,meteohub,2013-04-27 14:28:00,
2013-04-27 10:33:00,64.6,40.3,30.34,SE,134,0.0,5.0,41,0.00,,,0.00,meteohub,2013-04-27 14:33:00,
2013-04-27 10:38:00,65.8,41.5,30.34,ESE,112,1.0,6.0,41,0.00,,,0.00,meteohub,2013-04-27 14:38:00,
2013-04-27 10:43:00,65.8,40.1,30.34,NE,41,5.0,6.0,39,0.00,,,0.00,meteohub,2013-04-27 14:43:00,
2013-04-27 10:48:00,64.9,39.4,30.34,SSW,210,1.0,6.0,39,0.00,,,0.00,meteohub,2013-04-27 14:48:00,
2013-04-27 10:53:00,65.5,39.2,30.34,WSW,250,2.0,10.0,38,0.00,,,0.00,meteohub,2013-04-27 14:53:00,
2013-04-27 10:58:00,66.0,39.7,30.34,NNE,27,3.0,10.0,38,0.00,,,0.00,meteohub,2013-04-27 14:58:00,
2013-04-27 11:03:00,65.1,38.8,30.34,ENE,58,1.0,10.0,38,0.00,,,0.00,meteohub,2013-04-27 15:03:00,
2013-04-27 11:08:00,65.5,39.2,30.34,NNW,332,0.0,7.0,38,0.00,,,0.00,meteohub,2013-04-27 15:08:00,
2013-04-27 11:13:00,66.6,38.8,30.34,SW,216,5.0,7.0,36,0.00,,,0.00,meteohub,2013-04-27 15:13:00,
2013-04-27 11:18:00,67.5,38.8,30.34,SSE,165,3.0,7.0,35,0.00,,,0.00,meteohub,2013-04-27 15:18:00,
2013-04-27 11:24:00,68.0,38.7,30.34,SSE,166,4.0,7.0,34,0.00,,,0.00,meteohub,2013-04-27 15:24:00,
2013-04-27 11:29:00,68.5,38.3,30.34,SSE,154,2.0,6.0,33,0.00,,,0.00,meteohub,2013-04-27 15:29:00,
2013-04-27 11:34:00,68.4,37.4,30.33,NW,308,1.0,10.0,32,0.00,,,0.00,meteohub,2013-04-27 15:34:00,
2013-04-27 11:39:00,67.8,37.6,30.33,NE,54,1.0,10.0,33,0.00,,,0.00,meteohub,2013-04-27 15:39:00,
2013-04-27 11:44:00,68.5,38.3,30.33,North,6,0.0,10.0,33,0.00,,,0.00,meteohub,2013-04-27 15:44:00,
2013-04-27 11:49:00,70.2,38.8,30.33,SSE,158,0.0,8.0,32,0.00,,,0.00,meteohub,2013-04-27 15:49:00,
2013-04-27 11:54:00,69.8,37.8,30.32,SE,141,4.0,5.0,31,0.00,,,0.00,meteohub,2013-04-27 15:54:00,
2013-04-27 11:59:00,70.0,37.9,30.32,ESE,106,1.0,5.0,31,0.00,,,0.00,meteohub,2013-04-27 15:59:00,
2013-04-27 12:04:00,70.5,36.7,30.32,South,169,3.0,8.0,29,0.00,,,0.00,meteohub,2013-04-27 16:04:00,
2013-04-27 12:09:00,70.5,36.7,30.32,SSE,165,4.0,8.0,29,0.00,,,0.00,meteohub,2013-04-27 16:09:00,
2013-04-27 12:14:00,70.9,37.9,30.32,ESE,113,5.0,6.0,30,0.00,,,0.00,meteohub,2013-04-27 16:14:00,
2013-04-27 12:19:00,71.1,38.1,30.32,SSE,159,2.0,7.0,30,0.00,,,0.00,meteohub,2013-04-27 16:19:00,
2013-04-27 12:24:00,70.3,38.3,30.31,SSW,210,3.0,8.0,31,0.00,,,0.00,meteohub,2013-04-27 16:24:00,
2013-04-27 12:29:00,70.0,37.9,30.31,ESE,123,0.0,10.0,31,0.00,,,0.00,meteohub,2013-04-27 16:29:00,
2013-04-27 12:34:00,70.2,37.2,30.31,SSW,211,2.0,10.0,30,0.00,,,0.00,meteohub,2013-04-27 16:34:00,
2013-04-27 12:39:00,69.8,37.8,30.31,North,8,1.0,9.0,31,0.00,,,0.00,meteohub,2013-04-27 16:39:00,
2013-04-27 12:44:00,70.3,38.3,30.30,SE,143,2.0,8.0,31,0.00,,,0.00,meteohub,2013-04-27 16:44:00,
2013-04-27 12:49:00,71.1,38.8,30.30,SSW,208,1.0,8.0,31,0.00,,,0.00,meteohub,2013-04-27 16:49:00,
2013-04-27 12:54:00,71.1,38.1,30.30,North,356,2.0,6.0,30,0.00,,,0.00,meteohub,2013-04-27 16:54:00,
2013-04-27 12:59:00,71.1,38.8,30.30,South,173,1.0,7.0,31,0.00,,,0.00,meteohub,2013-04-27 16:59:00,
2013-04-27 13:04:00,71.6,38.5,30.30,East,81,1.0,7.0,30,0.00,,,0.00,meteohub,2013-04-27 17:04:00,
2013-04-27 13:09:00,71.1,38.1,30.29,NE,47,0.0,8.0,30,0.00,,,0.00,meteohub,2013-04-27 17:09:00,
2013-04-27 13:14:00,70.3,39.0,30.29,NE,34,2.0,8.0,32,0.00,,,0.00,meteohub,2013-04-27 17:14:00,
2013-04-27 13:19:00,70.9,38.7,30.29,North,6,1.0,10.0,31,0.00,,,0.00,meteohub,2013-04-27 17:19:00,
2013-04-27 13:24:00,71.1,38.8,30.28,NE,46,3.0,10.0,31,0.00,,,0.00,meteohub,2013-04-27 17:24:00,
2013-04-27 13:30:00,71.2,39.0,30.28,ESE,121,2.0,10.0,31,0.00,,,0.00,meteohub,2013-04-27 17:30:00,
2013-04-27 13:34:00,71.6,39.4,30.28,SSW,194,4.0,10.0,31,0.00,,,0.00,meteohub,2013-04-27 17:34:00,
2013-04-27 13:40:00,71.8,38.7,30.28,SSE,159,2.0,10.0,30,0.00,,,0.00,meteohub,2013-04-27 17:40:00,
2013-04-27 13:45:00,72.0,38.8,30.27,South,169,1.0,10.0,30,0.00,,,0.00,meteohub,2013-04-27 17:45:00,
2013-04-27 13:50:00,71.2,38.3,30.27,ENE,72,5.0,6.0,30,0.00,,,0.00,meteohub,2013-04-27 17:50:00,
2013-04-27 13:55:00,70.9,38.7,30.27,SSW,200,1.0,6.0,31,0.00,,,0.00,meteohub,2013-04-27 17:55:00,
2013-04-27 14:00:00,70.7,39.4,30.27,SW,221,4.0,6.0,32,0.00,,,0.00,meteohub,2013-04-27 18:00:00,
2013-04-27 14:05:00,70.5,39.2,30.27,SW,216,0.0,6.0,32,0.00,,,0.00,meteohub,2013-04-27 18:05:00,
2013-04-27 14:10:00,70.5,38.5,30.27,NE,39,2.0,7.0,31,0.00,,,0.00,meteohub,2013-04-27 18:10:00,
2013-04-27 14:15:00,70.5,39.2,30.27,SSE,159,6.0,7.0,32,0.00,,,0.00,meteohub,2013-04-27 18:15:00,
2013-04-27 14:20:00,71.1,39.7,30.27,ESE,117,1.0,5.0,32,0.00,,,0.00,meteohub,2013-04-27 18:20:00,
2013-04-27 14:25:00,71.4,39.2,30.26,SW,219,3.0,7.0,31,0.00,,,0.00,meteohub,2013-04-27 18:25:00,
2013-04-27 14:30:00,71.4,39.2,30.26,South,181,1.0,7.0,31,0.00,,,0.00,meteohub,2013-04-27 18:30:00,
2013-04-27 14:35:00,71.1,39.7,30.25,SE,129,4.0,7.0,32,0.00,,,0.00,meteohub,2013-04-27 18:35:00,
2013-04-27 14:40:00,72.1,40.6,30.26,ESE,110,2.0,7.0,32,0.00,,,0.00,meteohub,2013-04-27 18:40:00,
2013-04-27 14:45:00,72.9,40.5,30.26,SSE,149,7.0,7.0,31,0.00,,,0.00,meteohub,2013-04-27 18:45:00,
2013-04-27 14:50:00,72.3,39.9,30.26,SSW,207,2.0,8.0,31,0.00,,,0.00,meteohub,2013-04-27 18:50:00,
2013-04-27 14:55:00,72.9,39.6,30.26,SSW,207,1.0,10.0,30,0.00,,,0.00,meteohub,2013-04-27 18:55:00,
2013-04-27 15:00:00,73.2,39.9,30.25,SSW,205,2.0,10.0,30,0.00,,,0.00,meteohub,2013-04-27 19:00:00,
2013-04-27 15:05:00,73.9,40.5,30.25,North,8,2.0,10.0,30,0.00,,,0.00,meteohub,2013-04-27 19:05:00,
2013-04-27 15:10:00,73.6,40.3,30.25,ENE,63,2.0,7.0,30,0.00,,,0.00,meteohub,2013-04-27 19:10:00,
2013-04-27 15:15:00,73.2,40.8,30.25,ESE,117,2.0,7.0,31,0.00,,,0.00,meteohub,2013-04-27 19:15:00,
2013-04-27 15:20:00,73.6,40.3,30.25,NNW,342,3.0,7.0,30,0.00,,,0.00,meteohub,2013-04-27 19:20:00,
2013-04-27 15:25:00,73.2,39.9,30.25,NE,41,0.0,8.0,30,0.00,,,0.00,meteohub,2013-04-27 19:25:00,
2013-04-27 15:30:00,73.6,39.4,30.25,East,98,3.0,8.0,29,0.00,,,0.00,meteohub,2013-04-27 19:30:00,
2013-04-27 15:35:00,73.2,40.8,30.25,East,84,6.0,9.0,31,0.00,,,0.00,meteohub,2013-04-27 19:35:00,
2013-04-27 15:40:00,73.2,40.8,30.24,SSE,156,0.0,9.0,31,0.00,,,0.00,meteohub,2013-04-27 19:40:00,
2013-04-27 15:45:00,73.9,41.4,30.24,SSW,200,3.0,9.0,31,0.00,,,0.00,meteohub,2013-04-27 19:45:00,
2013-04-27 15:50:00,73.8,40.5,30.24,SSE,148,4.0,8.0,30,0.00,,,0.00,meteohub,2013-04-27 19:50:00,
2013-04-27 15:55:00,73.8,39.6,30.24,SSE,151,7.0,9.0,29,0.00,,,0.00,meteohub,2013-04-27 19:55:00,
2013-04-27 16:00:00,73.6,38.5,30.24,WSW,245,4.0,9.0,28,0.00,,,0.00,meteohub,2013-04-27 20:00:00,
2013-04-27 16:05:00,73.2,39.0,30.24,SSE,152,0.0,9.0,29,0.00,,,0.00,meteohub,2013-04-27 20:05:00,
2013-04-27 16:10:00,73.8,39.6,30.23,NE,51,0.0,8.0,29,0.00,,,0.00,meteohub,2013-04-27 20:10:00,
2013-04-27 16:15:00,73.9,40.5,30.23,WSW,256,1.0,6.0,30,0.00,,,0.00,meteohub,2013-04-27 20:15:00,
2013-04-27 16:21:00,73.8,39.6,30.23,SE,127,3.0,9.0,29,0.00,,,0.00,meteohub,2013-04-27 20:21:00,
2013-04-27 16:26:00,72.7,39.4,30.22,SE,145,4.0,10.0,30,0.00,,,0.00,meteohub,2013-04-27 20:26:00,
2013-04-27 16:31:00,72.7,40.3,30.22,SE,129,7.0,11.0,31,0.00,,,0.00,meteohub,2013-04-27 20:31:00,
2013-04-27 16:36:00,72.3,40.8,30.22,SSW,207,1.0,11.0,32,0.00,,,0.00,meteohub,2013-04-27 20:36:00,
2013-04-27 16:41:00,72.7,40.3,30.22,South,188,4.0,11.0,31,0.00,,,0.00,meteohub,2013-04-27 20:41:00,
2013-04-27 16:46:00,72.7,40.3,30.22,ESE,122,1.0,9.0,31,0.00,,,0.00,meteohub,2013-04-27 20:46:00,
2013-04-27 16:51:00,72.9,39.6,30.22,ESE,118,0.0,7.0,30,0.00,,,0.00,meteohub,2013-04-27 20:51:00,
2013-04-27 16:56:00,73.0,38.8,30.22,NNW,329,1.0,7.0,29,0.00,,,0.00,meteohub,2013-04-27 20:56:00,
2013-04-27 17:01:00,72.7,37.8,30.22,SSE,149,5.0,11.0,28,0.00,,,0.00,meteohub,2013-04-27 21:01:00,
2013-04-27 17:06:00,72.9,38.7,30.22,SSE,156,7.0,11.0,29,0.00,,,0.00,meteohub,2013-04-27 21:06:00,
2013-04-27 17:11:00,72.3,39.2,30.22,South,179,4.0,11.0,30,0.00,,,0.00,meteohub,2013-04-27 21:11:00,
2013-04-27 17:16:00,72.0,38.8,30.22,East,79,1.0,10.0,30,0.00,,,0.00,meteohub,2013-04-27 21:16:00,
2013-04-27 17:21:00,72.7,37.8,30.22,ESE,110,1.0,10.0,28,0.00,,,0.00,meteohub,2013-04-27 21:21:00,
2013-04-27 17:26:00,72.3,37.4,30.22,NE,53,2.0,10.0,28,0.00,,,0.00,meteohub,2013-04-27 21:26:00,
2013-04-27 17:31:00,72.1,36.3,30.22,ESE,106,5.0,10.0,27,0.00,,,0.00,meteohub,2013-04-27 21:31:00,
2013-04-27 17:36:00,71.8,36.9,30.22,SSE,148,1.0,8.0,28,0.00,,,0.00,meteohub,2013-04-27 21:36:00,
2013-04-27 17:41:00,71.8,36.9,30.22,ESE,120,3.0,8.0,28,0.00,,,0.00,meteohub,2013-04-27 21:41:00,
2013-04-27 17:46:00,71.6,36.7,30.22,SSW,200,0.0,10.0,28,0.00,,,0.00,meteohub,2013-04-27 21:46:00,
2013-04-27 17:51:00,71.6,35.8,30.22,ESE,120,7.0,10.0,27,0.00,,,0.00,meteohub,2013-04-27 21:51:00,
2013-04-27 17:56:00,71.2,36.5,30.22,ESE,122,3.0,10.0,28,0.00,,,0.00,meteohub,2013-04-27 21:56:00,
2013-04-27 18:01:00,70.5,35.8,30.22,SSE,168,3.0,10.0,28,0.00,,,0.00,meteohub,2013-04-27 22:01:00,
2013-04-27 18:06:00,70.5,35.8,30.22,ESE,118,2.0,10.0,28,0.00,,,0.00,meteohub,2013-04-27 22:06:00,
2013-04-27 18:11:00,70.5,35.8,30.22,SE,125,4.0,12.0,28,0.00,,,0.00,meteohub,2013-04-27 22:11:00,
2013-04-27 18:16:00,70.0,36.3,30.22,ESE,113,4.0,12.0,29,0.00,,,0.00,meteohub,2013-04-27 22:16:00,
2013-04-27 18:21:00,69.8,35.2,30.22,SSE,160,6.0,11.0,28,0.00,,,0.00,meteohub,2013-04-27 22:21:00,
2013-04-27 18:26:00,69.6,36.0,30.22,SW,233,0.0,11.0,29,0.00,,,0.00,meteohub,2013-04-27 22:26:00,
2013-04-27 18:31:00,69.6,36.0,30.22,SE,129,2.0,11.0,29,0.00,,,0.00,meteohub,2013-04-27 22:31:00,
2013-04-27 18:36:00,69.3,35.6,30.22,SE,146,2.0,11.0,29,0.00,,,0.00,meteohub,2013-04-27 22:36:00,
2013-04-27 18:41:00,68.9,35.4,30.22,SE,136,2.0,10.0,29,0.00,,,0.00,meteohub,2013-04-27 22:41:00,
2013-04-27 18:46:00,68.9,35.4,30.22,ESE,117,1.0,8.0,29,0.00,,,0.00,meteohub,2013-04-27 22:46:00,
2013-04-27 18:51:00,68.7,36.0,30.22,SSE,150,4.0,8.0,30,0.00,,,0.00,meteohub,2013-04-27 22:51:00,
2013-04-27 18:56:00,68.5,36.0,30.22,SE,143,2.0,8.0,30,0.00,,,0.00,meteohub,2013-04-27 22:56:00,
2013-04-27 19:02:00,68.4,36.5,30.22,ESE,115,0.0,10.0,31,0.00,,,0.00,meteohub,2013-04-27 23:02:00,
2013-04-27 19:07:00,68.2,36.3,30.22,SE,127,3.0,10.0,31,0.00,,,0.00,meteohub,2013-04-27 23:07:00,
2013-04-27 19:12:00,67.8,36.1,30.22,ESE,110,3.0,10.0,31,0.00,,,0.00,meteohub,2013-04-27 23:12:00,
2013-04-27 19:17:00,67.5,35.8,30.22,SE,139,7.0,8.0,31,0.00,,,0.00,meteohub,2013-04-27 23:17:00,
2013-04-27 19:22:00,67.1,35.4,30.22,SSE,167,4.0,9.0,31,0.00,,,0.00,meteohub,2013-04-27 23:22:00,
2013-04-27 19:27:00,66.9,36.1,30.22,SE,127,1.0,9.0,32,0.00,,,0.00,meteohub,2013-04-27 23:27:00,
2013-04-27 19:32:00,66.6,35.8,30.22,ESE,118,1.0,9.0,32,0.00,,,0.00,meteohub,2013-04-27 23:32:00,
2013-04-27 19:37:00,66.4,35.6,30.22,SE,143,3.0,9.0,32,0.00,,,0.00,meteohub,2013-04-27 23:37:00,
2013-04-27 19:42:00,66.0,36.1,30.22,South,170,3.0,9.0,33,0.00,,,0.00,meteohub,2013-04-27 23:42:00,
2013-04-27 19:47:00,65.8,36.0,30.22,SE,131,1.0,9.0,33,0.00,,,0.00,meteohub,2013-04-27 23:47:00,
2013-04-27 19:52:00,65.5,35.6,30.21,ESE,122,4.0,5.0,33,0.00,,,0.00,meteohub,2013-04-27 23:52:00,
2013-04-27 19:57:00,65.3,36.1,30.22,SSE,156,2.0,5.0,34,0.00,,,0.00,meteohub,2013-04-27 23:57:00,
2013-04-27 20:02:00,65.1,36.1,30.22,SE,130,2.0,5.0,34,0.00,,,0.00,meteohub,2013-04-28 00:02:00,
2013-04-27 20:06:00,64.8,35.8,30.22,SE,139,1.0,5.0,34,0.00,,,0.00,meteohub,2013-04-28 00:06:00,
2013-04-27 20:12:00,64.8,37.2,30.22,SSE,150,1.0,4.0,36,0.00,,,0.00,meteohub,2013-04-28 00:12:00,
2013-04-27 20:17:00,64.4,36.9,30.22,SE,132,2.0,4.0,36,0.00,,,0.00,meteohub,2013-04-28 00:17:00,
2013-04-27 20:22:00,64.2,36.7,30.22,SE,134,2.0,4.0,36,0.00,,,0.00,meteohub,2013-04-28 00:22:00,
2013-04-27 20:27:00,64.0,37.2,30.22,South,178,0.0,5.0,37,0.00,,,0.00,meteohub,2013-04-28 00:27:00,
2013-04-27 20:32:00,63.9,37.0,30.22,SE,143,3.0,5.0,37,0.00,,,0.00,meteohub,2013-04-28 00:32:00,
2013-04-27 20:37:00,63.7,36.1,30.22,SE,132,1.0,5.0,36,0.00,,,0.00,meteohub,2013-04-28 00:37:00,
2013-04-27 20:42:00,63.7,36.9,30.22,SE,127,1.0,5.0,37,0.00,,,0.00,meteohub,2013-04-28 00:42:00,
2013-04-27 20:47:00,63.5,36.7,30.22,SE,131,1.0,5.0,37,0.00,,,0.00,meteohub,2013-04-28 00:47:00,
2013-04-27 20:52:00,63.3,36.7,30.22,SE,141,1.0,5.0,37,0.00,,,0.00,meteohub,2013-04-28 00:52:00,
2013-04-27 20:57:00,63.1,36.5,30.22,SE,145,2.0,5.0,37,0.00,,,0.00,meteohub,2013-04-28 00:57:00,
2013-04-27 21:02:00,63.1,37.0,30.22,SSE,149,0.0,5.0,38,0.00,,,0.00,meteohub,2013-04-28 01:02:00,
2013-04-27 21:07:00,63.0,37.0,30.22,SE,141,0.0,5.0,38,0.00,,,0.00,meteohub,2013-04-28 01:07:00,
2013-04-27 21:12:00,62.8,37.4,30.23,SE,135,0.0,4.0,39,0.00,,,0.00,meteohub,2013-04-28 01:12:00,
2013-04-27 21:17:00,62.4,36.5,30.23,SSE,159,1.0,4.0,38,0.00,,,0.00,meteohub,2013-04-28 01:17:00,
2013-04-27 21:22:00,62.2,37.6,30.22,SE,143,0.0,2.0,40,0.00,,,0.00,meteohub,2013-04-28 01:22:00,
2013-04-27 21:27:00,62.1,36.9,30.22,SE,139,0.0,3.0,39,0.00,,,0.00,meteohub,2013-04-28 01:27:00,
2013-04-27 21:32:00,62.1,37.4,30.22,SE,131,0.0,3.0,40,0.00,,,0.00,meteohub,2013-04-28 01:32:00,
2013-04-27 21:37:00,61.9,38.5,30.23,SE,134,0.0,4.0,42,0.00,,,0.00,meteohub,2013-04-28 01:37:00,
2013-04-27 21:42:00,61.9,39.2,30.23,SE,134,0.0,4.0,43,0.00,,,0.00,meteohub,2013-04-28 01:42:00,
2013-04-27 21:47:00,61.5,37.6,30.23,SE,141,0.0,4.0,41,0.00,,,0.00,meteohub,2013-04-28 01:47:00,
2013-04-27 21:52:00,61.2,37.9,30.23,SE,141,0.0,1.0,42,0.00,,,0.00,meteohub,2013-04-28 01:52:00,
2013-04-27 21:57:00,60.8,37.6,30.23,SE,133,0.0,1.0,42,0.00,,,0.00,meteohub,2013-04-28 01:57:00,
2013-04-27 22:02:00,61.0,37.8,30.23,SE,135,1.0,5.0,42,0.00,,,0.00,meteohub,2013-04-28 02:02:00,
2013-04-27 22:07:00,61.2,37.2,30.23,ESE,117,3.0,5.0,41,0.00,,,0.00,meteohub,2013-04-28 02:07:00,
2013-04-27 22:12:00,61.2,36.7,30.23,SE,132,3.0,6.0,40,0.00,,,0.00,meteohub,2013-04-28 02:12:00,
2013-04-27 22:17:00,61.2,37.2,30.23,SSW,212,0.0,6.0,41,0.00,,,0.00,meteohub,2013-04-28 02:17:00,
2013-04-27 22:22:00,61.2,37.9,30.23,SE,146,0.0,6.0,42,0.00,,,0.00,meteohub,2013-04-28 02:22:00,
2013-04-27 22:27:00,61.0,37.8,30.23,SSE,159,3.0,3.0,42,0.00,,,0.00,meteohub,2013-04-28 02:27:00,
2013-04-27 22:32:00,60.8,38.1,30.23,SE,134,2.0,5.0,43,0.00,,,0.00,meteohub,2013-04-28 02:32:00,
2013-04-27 22:37:00,60.6,37.9,30.23,South,169,1.0,5.0,43,0.00,,,0.00,meteohub,2013-04-28 02:37:00,
2013-04-27 22:42:00,60.4,38.5,30.23,SSE,148,3.0,5.0,44,0.00,,,0.00,meteohub,2013-04-28 02:42:00,
2013-04-27 22:47:00,60.3,38.3,30.23,South,177,1.0,5.0,44,0.00,,,0.00,meteohub,2013-04-28 02:47:00,
2013-04-27 22:52:00,60.1,38.7,30.23,SE,139,2.0,5.0,45,0.00,,,0.00,meteohub,2013-04-28 02:52:00,
2013-04-27 22:57:00,59.9,39.0,30.22,SSW,192,2.0,5.0,46,0.00,,,0.00,meteohub,2013-04-28 02:57:00,
2013-04-27 23:02:00,59.7,38.8,30.22,SSE,165,3.0,5.0,46,0.00,,,0.00,meteohub,2013-04-28 03:02:00,
2013-04-27 23:07:00,59.5,38.7,30.22,South,181,2.0,9.0,46,0.00,,,0.00,meteohub,2013-04-28 03:07:00,
2013-04-27 23:12:00,59.5,39.4,30.22,SSE,148,3.0,9.0,47,0.00,,,0.00,meteohub,2013-04-28 03:12:00,
2013-04-27 23:17:00,59.4,39.7,30.22,SSW,199,5.0,9.0,48,0.00,,,0.00,meteohub,2013-04-28 03:17:00,
2013-04-27 23:22:00,59.2,39.6,30.22,SE,141,5.0,8.0,48,0.00,,,0.00,meteohub,2013-04-28 03:22:00,
2013-04-27 23:27:00,59.0,39.4,30.22,SE,135,1.0,7.0,48,0.00,,,0.00,meteohub,2013-04-28 03:27:00,
2013-04-27 23:32:00,58.8,39.2,30.22,SE,138,2.0,7.0,48,0.00,,,0.00,meteohub,2013-04-28 03:32:00,
2013-04-27 23:37:00,58.8,39.7,30.22,South,176,1.0,7.0,49,0.00,,,0.00,meteohub,2013-04-28 03:37:00,
2013-04-27 23:42:00,58.6,40.1,30.22,South,188,7.0,7.0,50,0.00,,,0.00,meteohub,2013-04-28 03:42:00,
2013-04-27 23:47:00,58.5,39.9,30.22,South,172,6.0,8.0,50,0.00,,,0.00,meteohub,2013-04-28 03:47:00,
2013-04-27 23:52:00,58.5,40.5,30.22,SSW,195,4.0,8.0,51,0.00,,,0.00,meteohub,2013-04-28 03:52:00,
2013-04-27 23:57:00,58.3,40.3,30.22,SSW,203,1.0,8.0,51,0.00,,,0.00,meteohub,2013-04-28 03:57:00,